Information on these data can be found in provided Readme document
Contact Info: Zachary Fasnacht (zachary.fasnacht@ssaihq.com); Nickolay Krotkov (nickolay.a.krotkov@nasa.gov); Lok Lamsal (lok.lamsal@nasa.gov)

FillValue: -999.
ScaleFactor: 1e15
Units: molecules/cm^2

Date(yyyy-mm-dd),City,Country,LonCenter,LatCenter,BoundingCoordinates,Median,Q1,Q3,Mean,Baseline_Median,Baseline_Q1,Baseline_Q3,Baseline_Mean,NumGoodSamples,NumTotalSamples
2015-01-01,Bhopal,India,77.4126,23.2599,[76.9126 22.7599 77.9126 23.7599],1.428,0.753,2.278,1.607,1.711,1.108,2.358,1.75,170.0,544.0
2015-01-02,Bhopal,India,77.4126,23.2599,[76.9126 22.7599 77.9126 23.7599],1.812,1.185,2.541,1.877,1.747,1.172,2.343,1.757,142.0,562.0
2015-01-03,Bhopal,India,77.4126,23.2599,[76.9126 22.7599 77.9126 23.7599],1.893,1.299,2.571,1.974,1.793,1.18,2.363,1.778,139.0,551.0
2015-01-04,Bhopal,India,77.4126,23.2599,[76.9126 22.7599 77.9126 23.7599],1.876,1.299,2.571,1.98,1.833,1.193,2.44,1.817,173.0,566.0
2015-01-05,Bhopal,India,77.4126,23.2599,[76.9126 22.7599 77.9126 23.7599],1.928,1.346,2.628,2.043,1.761,1.082,2.433,1.762,146.0,560.0
2015-01-06,Bhopal,India,77.4126,23.2599,[76.9126 22.7599 77.9126 23.7599],1.877,1.332,2.614,1.99,1.681,1.089,2.343,1.704,172.0,551.0
2015-01-07,Bhopal,India,77.4126,23.2599,[76.9126 22.7599 77.9126 23.7599],1.708,1.249,2.17,1.742,1.678,1.023,2.273,1.653,152.0,561.0
2015-01-08,Bhopal,India,77.4126,23.2599,[76.9126 22.7599 77.9126 23.7599],1.801,1.299,2.281,1.809,1.581,1.006,2.223,1.611,172.0,536.0
2015-01-09,Bhopal,India,77.4126,23.2599,[76.9126 22.7599 77.9126 23.7599],1.801,1.299,2.281,1.809,1.598,0.988,2.247,1.622,172.0,543.0
2015-01-10,Bhopal,India,77.4126,23.2599,[76.9126 22.7599 77.9126 23.7599],1.801,1.299,2.281,1.809,1.613,0.981,2.209,1.617,172.0,496.0
2015-01-11,Bhopal,India,77.4126,23.2599,[76.9126 22.7599 77.9126 23.7599],1.801,1.272,2.281,1.79,1.633,0.955,2.219,1.613,186.0,514.0
2015-01-12,Bhopal,India,77.4126,23.2599,[76.9126 22.7599 77.9126 23.7599],1.801,1.242,2.271,1.768,1.618,0.937,2.208,1.596,203.0,509.0
2015-01-13,Bhopal,India,77.4126,23.2599,[76.9126 22.7599 77.9126 23.7599],1.726,1.213,2.231,1.72,1.622,1.023,2.181,1.6,221.0,517.0
2015-01-14,Bhopal,India,77.4126,23.2599,[76.9126 22.7599 77.9126 23.7599],1.747,1.242,2.231,1.752,1.651,1.018,2.2,1.627,195.0,517.0
2015-01-15,Bhopal,India,77.4126,23.2599,[76.9126 22.7599 77.9126 23.7599],1.747,1.242,2.231,1.752,1.647,1.049,2.209,1.662,195.0,501.0
2015-01-16,Bhopal,India,77.4126,23.2599,[76.9126 22.7599 77.9126 23.7599],1.811,1.18,2.429,1.77,1.674,1.022,2.294,1.674,165.0,512.0
2015-01-17,Bhopal,India,77.4126,23.2599,[76.9126 22.7599 77.9126 23.7599],1.811,1.18,2.429,1.77,1.687,1.027,2.318,1.693,165.0,494.0
2015-01-18,Bhopal,India,77.4126,23.2599,[76.9126 22.7599 77.9126 23.7599],1.684,1.02,2.429,1.691,1.699,1.008,2.391,1.702,136.0,513.0
2015-01-19,Bhopal,India,77.4126,23.2599,[76.9126 22.7599 77.9126 23.7599],1.684,0.886,2.429,1.624,1.63,0.963,2.291,1.646,102.0,502.0
2015-01-20,Bhopal,India,77.4126,23.2599,[76.9126 22.7599 77.9126 23.7599],1.684,0.886,2.429,1.624,1.75,1.054,2.428,1.734,102.0,519.0
2015-01-21,Bhopal,India,77.4126,23.2599,[76.9126 22.7599 77.9126 23.7599],1.688,0.884,2.429,1.637,1.74,1.066,2.455,1.76,76.0,515.0
2015-01-22,Bhopal,India,77.4126,23.2599,[76.9126 22.7599 77.9126 23.7599],1.37,0.671,2.212,1.421,1.715,1.005,2.355,1.721,98.0,508.0
2015-01-23,Bhopal,India,77.4126,23.2599,[76.9126 22.7599 77.9126 23.7599],1.02,0.326,1.848,1.09,1.72,1.002,2.334,1.706,78.0,524.0
2015-01-24,Bhopal,India,77.4126,23.2599,[76.9126 22.7599 77.9126 23.7599],0.691,-0.126,1.391,0.707,1.656,0.982,2.289,1.659,97.0,498.0
2015-01-25,Bhopal,India,77.4126,23.2599,[76.9126 22.7599 77.9126 23.7599],0.691,-0.126,1.391,0.707,1.674,1.055,2.341,1.696,97.0,547.0
2015-01-26,Bhopal,India,77.4126,23.2599,[76.9126 22.7599 77.9126 23.7599],0.784,0.218,1.385,0.737,1.711,1.104,2.304,1.683,123.0,543.0
2015-01-27,Bhopal,India,77.4126,23.2599,[76.9126 22.7599 77.9126 23.7599],0.696,-0.056,1.122,0.599,1.797,1.171,2.376,1.756,114.0,560.0
2015-01-28,Bhopal,India,77.4126,23.2599,[76.9126 22.7599 77.9126 23.7599],0.784,0.218,1.175,0.664,1.76,1.138,2.324,1.721,120.0,555.0
2015-01-29,Bhopal,India,77.4126,23.2599,[76.9126 22.7599 77.9126 23.7599],0.752,0.158,1.203,0.666,1.725,1.107,2.329,1.713,149.0,560.0
2015-01-30,Bhopal,India,77.4126,23.2599,[76.9126 22.7599 77.9126 23.7599],0.752,0.158,1.203,0.666,1.705,1.109,2.335,1.697,149.0,560.0
2015-01-31,Bhopal,India,77.4126,23.2599,[76.9126 22.7599 77.9126 23.7599],0.791,0.228,1.307,0.751,1.653,1.068,2.241,1.658,172.0,545.0
2015-02-01,Bhopal,India,77.4126,23.2599,[76.9126 22.7599 77.9126 23.7599],0.791,0.228,1.307,0.751,1.657,1.044,2.244,1.639,172.0,556.0
2015-02-02,Bhopal,India,77.4126,23.2599,[76.9126 22.7599 77.9126 23.7599],0.735,0.228,1.147,0.717,1.579,0.97,2.132,1.573,202.0,538.0
2015-02-03,Bhopal,India,77.4126,23.2599,[76.9126 22.7599 77.9126 23.7599],0.735,0.228,1.147,0.717,1.586,0.985,2.175,1.583,202.0,556.0
2015-02-04,Bhopal,India,77.4126,23.2599,[76.9126 22.7599 77.9126 23.7599],0.733,0.228,1.146,0.695,1.529,0.924,2.125,1.523,224.0,545.0
2015-02-05,Bhopal,India,77.4126,23.2599,[76.9126 22.7599 77.9126 23.7599],0.733,0.22,1.147,0.719,1.573,0.979,2.14,1.569,257.0,561.0
2015-02-06,Bhopal,India,77.4126,23.2599,[76.9126 22.7599 77.9126 23.7599],0.733,0.22,1.147,0.721,1.614,1.02,2.22,1.628,235.0,556.0
2015-02-07,Bhopal,India,77.4126,23.2599,[76.9126 22.7599 77.9126 23.7599],0.721,0.218,1.146,0.696,1.633,1.052,2.226,1.649,259.0,546.0
2015-02-08,Bhopal,India,77.4126,23.2599,[76.9126 22.7599 77.9126 23.7599],0.776,0.25,1.205,0.791,1.724,1.123,2.292,1.719,240.0,563.0
2015-02-09,Bhopal,India,77.4126,23.2599,[76.9126 22.7599 77.9126 23.7599],0.741,0.218,1.146,0.746,1.614,1.04,2.177,1.639,260.0,541.0
2015-02-10,Bhopal,India,77.4126,23.2599,[76.9126 22.7599 77.9126 23.7599],0.721,0.161,1.146,0.721,1.723,1.134,2.372,1.751,220.0,548.0
2015-02-11,Bhopal,India,77.4126,23.2599,[76.9126 22.7599 77.9126 23.7599],0.721,0.172,1.146,0.717,1.671,1.116,2.352,1.718,205.0,501.0
2015-02-12,Bhopal,India,77.4126,23.2599,[76.9126 22.7599 77.9126 23.7599],0.636,0.119,1.138,0.678,1.74,1.186,2.435,1.784,197.0,519.0
2015-02-13,Bhopal,India,77.4126,23.2599,[76.9126 22.7599 77.9126 23.7599],0.721,0.178,1.146,0.765,1.722,1.151,2.398,1.758,188.0,511.0
2015-02-14,Bhopal,India,77.4126,23.2599,[76.9126 22.7599 77.9126 23.7599],0.721,0.161,1.146,0.737,1.744,1.144,2.37,1.744,213.0,515.0
2015-02-15,Bhopal,India,77.4126,23.2599,[76.9126 22.7599 77.9126 23.7599],0.636,0.099,1.115,0.662,1.8,1.188,2.45,1.801,190.0,512.0
2015-02-16,Bhopal,India,77.4126,23.2599,[76.9126 22.7599 77.9126 23.7599],0.741,0.161,1.261,0.786,1.799,1.192,2.448,1.807,214.0,498.0
2015-02-17,Bhopal,India,77.4126,23.2599,[76.9126 22.7599 77.9126 23.7599],0.784,0.158,1.492,0.849,1.839,1.261,2.565,1.856,184.0,510.0
2015-02-18,Bhopal,India,77.4126,23.2599,[76.9126 22.7599 77.9126 23.7599],1.115,0.403,2.117,1.205,1.839,1.214,2.621,1.867,213.0,494.0
2015-02-19,Bhopal,India,77.4126,23.2599,[76.9126 22.7599 77.9126 23.7599],1.335,0.438,2.192,1.292,1.963,1.315,2.697,1.986,191.0,514.0
2015-02-20,Bhopal,India,77.4126,23.2599,[76.9126 22.7599 77.9126 23.7599],1.225,0.511,2.103,1.236,1.908,1.272,2.652,1.931,187.0,503.0
2015-02-21,Bhopal,India,77.4126,23.2599,[76.9126 22.7599 77.9126 23.7599],1.225,0.511,2.103,1.233,1.944,1.277,2.612,1.901,188.0,517.0
2015-02-22,Bhopal,India,77.4126,23.2599,[76.9126 22.7599 77.9126 23.7599],1.317,0.725,2.117,1.328,1.934,1.305,2.627,1.921,164.0,512.0
2015-02-23,Bhopal,India,77.4126,23.2599,[76.9126 22.7599 77.9126 23.7599],1.301,0.644,2.103,1.317,2.013,1.32,2.712,1.973,176.0,501.0
2015-02-24,Bhopal,India,77.4126,23.2599,[76.9126 22.7599 77.9126 23.7599],1.388,0.807,2.192,1.472,2.104,1.362,2.782,2.052,156.0,515.0
2015-02-25,Bhopal,India,77.4126,23.2599,[76.9126 22.7599 77.9126 23.7599],1.376,0.88,2.167,1.477,2.029,1.309,2.681,2.003,175.0,492.0
2015-02-26,Bhopal,India,77.4126,23.2599,[76.9126 22.7599 77.9126 23.7599],1.376,0.88,2.167,1.477,2.059,1.282,2.698,2.012,175.0,541.0
2015-02-27,Bhopal,India,77.4126,23.2599,[76.9126 22.7599 77.9126 23.7599],1.343,0.807,2.057,1.385,2.006,1.254,2.627,1.952,199.0,538.0
2015-02-28,Bhopal,India,77.4126,23.2599,[76.9126 22.7599 77.9126 23.7599],1.312,0.795,1.992,1.356,2.023,1.274,2.658,1.986,193.0,557.0
2015-03-01,Bhopal,India,77.4126,23.2599,[76.9126 22.7599 77.9126 23.7599],1.349,0.904,2.077,1.438,2.027,1.311,2.691,2.019,192.0,553.0
2015-03-02,Bhopal,India,77.4126,23.2599,[76.9126 22.7599 77.9126 23.7599],1.344,0.86,1.992,1.387,1.972,1.283,2.649,1.981,220.0,561.0
2015-03-03,Bhopal,India,77.4126,23.2599,[76.9126 22.7599 77.9126 23.7599],1.319,0.807,1.84,1.349,1.992,1.264,2.605,1.988,196.0,563.0
2015-03-04,Bhopal,India,77.4126,23.2599,[76.9126 22.7599 77.9126 23.7599],1.319,0.794,1.805,1.316,2.021,1.288,2.639,2.009,216.0,546.0
2015-03-05,Bhopal,India,77.4126,23.2599,[76.9126 22.7599 77.9126 23.7599],1.098,0.579,1.475,1.078,2.027,1.271,2.612,1.999,187.0,560.0
2015-03-06,Bhopal,India,77.4126,23.2599,[76.9126 22.7599 77.9126 23.7599],1.098,0.579,1.475,1.078,1.879,1.254,2.528,1.902,187.0,542.0
2015-03-07,Bhopal,India,77.4126,23.2599,[76.9126 22.7599 77.9126 23.7599],1.098,0.617,1.515,1.121,1.904,1.286,2.578,1.932,158.0,562.0
2015-03-08,Bhopal,India,77.4126,23.2599,[76.9126 22.7599 77.9126 23.7599],1.05,0.567,1.514,1.056,1.854,1.249,2.574,1.883,167.0,553.0
2015-03-09,Bhopal,India,77.4126,23.2599,[76.9126 22.7599 77.9126 23.7599],1.034,0.46,1.475,0.976,1.882,1.223,2.592,1.9,200.0,568.0
2015-03-10,Bhopal,India,77.4126,23.2599,[76.9126 22.7599 77.9126 23.7599],1.034,0.441,1.467,0.971,1.801,1.102,2.526,1.842,200.0,564.0
2015-03-11,Bhopal,India,77.4126,23.2599,[76.9126 22.7599 77.9126 23.7599],0.985,0.33,1.444,0.902,1.828,1.112,2.533,1.84,224.0,554.0
2015-03-12,Bhopal,India,77.4126,23.2599,[76.9126 22.7599 77.9126 23.7599],0.879,0.26,1.444,0.836,1.859,1.123,2.575,1.857,222.0,568.0
2015-03-13,Bhopal,India,77.4126,23.2599,[76.9126 22.7599 77.9126 23.7599],0.879,0.26,1.444,0.836,1.838,1.152,2.57,1.872,222.0,545.0
2015-03-14,Bhopal,India,77.4126,23.2599,[76.9126 22.7599 77.9126 23.7599],0.735,0.055,1.427,0.741,1.927,1.212,2.702,1.962,182.0,551.0
2015-03-15,Bhopal,India,77.4126,23.2599,[76.9126 22.7599 77.9126 23.7599],0.735,0.041,1.427,0.743,1.989,1.262,2.752,1.989,168.0,504.0
2015-03-16,Bhopal,India,77.4126,23.2599,[76.9126 22.7599 77.9126 23.7599],0.586,-0.008,1.339,0.647,2.01,1.292,2.809,2.036,180.0,521.0
2015-03-17,Bhopal,India,77.4126,23.2599,[76.9126 22.7599 77.9126 23.7599],0.646,0.041,1.378,0.711,2.008,1.276,2.762,2.02,173.0,513.0
2015-03-18,Bhopal,India,77.4126,23.2599,[76.9126 22.7599 77.9126 23.7599],0.709,0.114,1.38,0.725,2.032,1.348,2.745,2.063,198.0,517.0
2015-03-19,Bhopal,India,77.4126,23.2599,[76.9126 22.7599 77.9126 23.7599],0.646,0.058,1.345,0.72,2.036,1.368,2.781,2.085,204.0,518.0
2015-03-20,Bhopal,India,77.4126,23.2599,[76.9126 22.7599 77.9126 23.7599],0.646,0.022,1.302,0.669,2.034,1.348,2.769,2.059,228.0,502.0
2015-03-21,Bhopal,India,77.4126,23.2599,[76.9126 22.7599 77.9126 23.7599],0.646,0.022,1.302,0.669,2.072,1.39,2.806,2.112,228.0,515.0
2015-03-22,Bhopal,India,77.4126,23.2599,[76.9126 22.7599 77.9126 23.7599],0.646,0.022,1.302,0.669,2.11,1.478,2.82,2.154,228.0,498.0
2015-03-23,Bhopal,India,77.4126,23.2599,[76.9126 22.7599 77.9126 23.7599],0.713,0.058,1.338,0.704,2.189,1.588,2.926,2.27,218.0,517.0
2015-03-24,Bhopal,India,77.4126,23.2599,[76.9126 22.7599 77.9126 23.7599],1.055,0.33,1.774,1.064,2.18,1.564,2.924,2.253,214.0,507.0
2015-03-25,Bhopal,India,77.4126,23.2599,[76.9126 22.7599 77.9126 23.7599],1.117,0.352,1.906,1.123,2.235,1.583,2.958,2.284,233.0,522.0
2015-03-26,Bhopal,India,77.4126,23.2599,[76.9126 22.7599 77.9126 23.7599],1.211,0.503,2.006,1.246,2.241,1.597,3.015,2.306,223.0,520.0
2015-03-27,Bhopal,India,77.4126,23.2599,[76.9126 22.7599 77.9126 23.7599],1.211,0.535,1.951,1.263,2.235,1.61,3.013,2.306,227.0,511.0
2015-03-28,Bhopal,India,77.4126,23.2599,[76.9126 22.7599 77.9126 23.7599],1.208,0.503,1.928,1.244,2.28,1.605,3.05,2.325,245.0,526.0
2015-03-29,Bhopal,India,77.4126,23.2599,[76.9126 22.7599 77.9126 23.7599],1.27,0.538,1.943,1.277,2.264,1.616,2.993,2.303,262.0,503.0
2015-03-30,Bhopal,India,77.4126,23.2599,[76.9126 22.7599 77.9126 23.7599],1.27,0.538,1.943,1.277,2.263,1.605,3.0,2.299,262.0,554.0
2015-03-31,Bhopal,India,77.4126,23.2599,[76.9126 22.7599 77.9126 23.7599],1.522,0.726,2.382,1.52,2.242,1.569,3.01,2.272,263.0,550.0
2015-04-01,Bhopal,India,77.4126,23.2599,[76.9126 22.7599 77.9126 23.7599],1.553,0.82,2.387,1.577,2.308,1.669,3.032,2.341,278.0,570.0
2015-04-02,Bhopal,India,77.4126,23.2599,[76.9126 22.7599 77.9126 23.7599],1.701,0.976,2.452,1.716,2.327,1.673,3.021,2.337,271.0,559.0
2015-04-03,Bhopal,India,77.4126,23.2599,[76.9126 22.7599 77.9126 23.7599],1.774,1.073,2.468,1.79,2.345,1.663,3.013,2.352,271.0,566.0
2015-04-04,Bhopal,India,77.4126,23.2599,[76.9126 22.7599 77.9126 23.7599],1.885,1.27,2.564,1.929,2.378,1.749,3.055,2.408,268.0,566.0
2015-04-05,Bhopal,India,77.4126,23.2599,[76.9126 22.7599 77.9126 23.7599],1.912,1.3,2.564,1.936,2.379,1.768,3.093,2.444,272.0,551.0
2015-04-06,Bhopal,India,77.4126,23.2599,[76.9126 22.7599 77.9126 23.7599],1.912,1.3,2.564,1.936,2.371,1.794,3.097,2.436,272.0,563.0
2015-04-07,Bhopal,India,77.4126,23.2599,[76.9126 22.7599 77.9126 23.7599],1.943,1.322,2.597,1.964,2.364,1.751,3.052,2.411,276.0,547.0
2015-04-08,Bhopal,India,77.4126,23.2599,[76.9126 22.7599 77.9126 23.7599],1.818,1.238,2.537,1.916,2.364,1.78,3.074,2.437,247.0,567.0
2015-04-09,Bhopal,India,77.4126,23.2599,[76.9126 22.7599 77.9126 23.7599],1.931,1.389,2.537,1.967,2.353,1.757,3.039,2.41,236.0,556.0
2015-04-10,Bhopal,India,77.4126,23.2599,[76.9126 22.7599 77.9126 23.7599],1.957,1.417,2.564,2.005,2.373,1.821,3.061,2.45,254.0,568.0
2015-04-11,Bhopal,India,77.4126,23.2599,[76.9126 22.7599 77.9126 23.7599],2.037,1.513,2.752,2.126,2.409,1.842,3.091,2.479,245.0,561.0
2015-04-12,Bhopal,India,77.4126,23.2599,[76.9126 22.7599 77.9126 23.7599],2.158,1.612,2.872,2.269,2.421,1.851,3.101,2.485,250.0,551.0
2015-04-13,Bhopal,India,77.4126,23.2599,[76.9126 22.7599 77.9126 23.7599],2.236,1.614,2.945,2.303,2.437,1.827,3.123,2.489,250.0,564.0
2015-04-14,Bhopal,India,77.4126,23.2599,[76.9126 22.7599 77.9126 23.7599],2.377,1.671,3.062,2.386,2.465,1.859,3.126,2.501,270.0,540.0
2015-04-15,Bhopal,India,77.4126,23.2599,[76.9126 22.7599 77.9126 23.7599],2.417,1.692,3.101,2.435,2.47,1.884,3.138,2.521,233.0,547.0
2015-04-16,Bhopal,India,77.4126,23.2599,[76.9126 22.7599 77.9126 23.7599],2.476,1.812,3.165,2.498,2.484,1.879,3.144,2.527,197.0,500.0
2015-04-17,Bhopal,India,77.4126,23.2599,[76.9126 22.7599 77.9126 23.7599],2.476,1.773,3.176,2.486,2.513,1.93,3.168,2.555,215.0,522.0
2015-04-18,Bhopal,India,77.4126,23.2599,[76.9126 22.7599 77.9126 23.7599],2.583,1.956,3.356,2.702,2.54,1.934,3.205,2.587,205.0,514.0
2015-04-19,Bhopal,India,77.4126,23.2599,[76.9126 22.7599 77.9126 23.7599],2.72,2.027,3.503,2.803,2.532,1.906,3.19,2.575,212.0,519.0
2015-04-20,Bhopal,India,77.4126,23.2599,[76.9126 22.7599 77.9126 23.7599],2.605,1.951,3.368,2.727,2.487,1.882,3.159,2.533,235.0,522.0
2015-04-21,Bhopal,India,77.4126,23.2599,[76.9126 22.7599 77.9126 23.7599],2.501,1.718,3.351,2.583,2.512,1.856,3.173,2.536,259.0,505.0
2015-04-22,Bhopal,India,77.4126,23.2599,[76.9126 22.7599 77.9126 23.7599],2.483,1.71,3.254,2.57,2.481,1.782,3.114,2.482,255.0,517.0
2015-04-23,Bhopal,India,77.4126,23.2599,[76.9126 22.7599 77.9126 23.7599],2.286,1.654,3.101,2.429,2.431,1.792,3.096,2.462,286.0,499.0
2015-04-24,Bhopal,India,77.4126,23.2599,[76.9126 22.7599 77.9126 23.7599],2.331,1.615,3.147,2.44,2.451,1.791,3.083,2.465,266.0,518.0
2015-04-25,Bhopal,India,77.4126,23.2599,[76.9126 22.7599 77.9126 23.7599],2.331,1.613,3.101,2.402,2.412,1.753,3.046,2.412,262.0,508.0
2015-04-26,Bhopal,India,77.4126,23.2599,[76.9126 22.7599 77.9126 23.7599],2.234,1.604,3.094,2.375,2.392,1.738,3.067,2.409,282.0,525.0
2015-04-27,Bhopal,India,77.4126,23.2599,[76.9126 22.7599 77.9126 23.7599],2.132,1.536,3.012,2.286,2.338,1.675,3.018,2.359,263.0,518.0
2015-04-28,Bhopal,India,77.4126,23.2599,[76.9126 22.7599 77.9126 23.7599],2.19,1.577,3.012,2.305,2.391,1.707,3.034,2.387,271.0,508.0
2015-04-29,Bhopal,India,77.4126,23.2599,[76.9126 22.7599 77.9126 23.7599],2.027,1.448,2.89,2.204,2.364,1.688,3.036,2.385,269.0,519.0
2015-04-30,Bhopal,India,77.4126,23.2599,[76.9126 22.7599 77.9126 23.7599],1.939,1.412,2.77,2.124,2.348,1.671,3.033,2.375,288.0,495.0
2015-05-01,Bhopal,India,77.4126,23.2599,[76.9126 22.7599 77.9126 23.7599],1.939,1.412,2.77,2.124,2.32,1.628,3.016,2.337,288.0,545.0
2015-05-02,Bhopal,India,77.4126,23.2599,[76.9126 22.7599 77.9126 23.7599],1.921,1.387,2.653,2.078,2.281,1.593,2.959,2.303,273.0,543.0
2015-05-03,Bhopal,India,77.4126,23.2599,[76.9126 22.7599 77.9126 23.7599],1.885,1.282,2.451,1.915,2.316,1.572,2.992,2.299,277.0,563.0
2015-05-04,Bhopal,India,77.4126,23.2599,[76.9126 22.7599 77.9126 23.7599],1.803,1.226,2.345,1.813,2.342,1.662,2.951,2.313,273.0,557.0
2015-05-05,Bhopal,India,77.4126,23.2599,[76.9126 22.7599 77.9126 23.7599],1.771,1.142,2.331,1.777,2.32,1.654,2.94,2.312,276.0,560.0
2015-05-06,Bhopal,India,77.4126,23.2599,[76.9126 22.7599 77.9126 23.7599],1.791,1.152,2.371,1.811,2.32,1.63,2.949,2.306,264.0,568.0
2015-05-07,Bhopal,India,77.4126,23.2599,[76.9126 22.7599 77.9126 23.7599],1.791,1.152,2.371,1.811,2.403,1.73,2.977,2.369,264.0,550.0
2015-05-08,Bhopal,India,77.4126,23.2599,[76.9126 22.7599 77.9126 23.7599],1.794,1.136,2.39,1.796,2.383,1.711,3.007,2.367,233.0,561.0
2015-05-09,Bhopal,India,77.4126,23.2599,[76.9126 22.7599 77.9126 23.7599],1.885,1.251,2.419,1.863,2.39,1.711,3.007,2.364,263.0,544.0
2015-05-10,Bhopal,India,77.4126,23.2599,[76.9126 22.7599 77.9126 23.7599],1.885,1.166,2.39,1.848,2.373,1.695,3.016,2.381,235.0,564.0
2015-05-11,Bhopal,India,77.4126,23.2599,[76.9126 22.7599 77.9126 23.7599],2.018,1.383,2.676,2.058,2.407,1.725,3.057,2.398,230.0,555.0
2015-05-12,Bhopal,India,77.4126,23.2599,[76.9126 22.7599 77.9126 23.7599],2.018,1.387,2.676,2.069,2.457,1.802,3.121,2.471,259.0,574.0
2015-05-13,Bhopal,India,77.4126,23.2599,[76.9126 22.7599 77.9126 23.7599],2.018,1.385,2.676,2.053,2.499,1.829,3.16,2.499,244.0,570.0
2015-05-14,Bhopal,India,77.4126,23.2599,[76.9126 22.7599 77.9126 23.7599],1.994,1.34,2.6,2.004,2.583,1.872,3.171,2.532,252.0,563.0
2015-05-15,Bhopal,India,77.4126,23.2599,[76.9126 22.7599 77.9126 23.7599],2.09,1.34,2.718,2.057,2.613,1.885,3.189,2.549,255.0,577.0
2015-05-16,Bhopal,India,77.4126,23.2599,[76.9126 22.7599 77.9126 23.7599],1.921,1.166,2.571,1.945,2.568,1.903,3.182,2.539,273.0,553.0
2015-05-17,Bhopal,India,77.4126,23.2599,[76.9126 22.7599 77.9126 23.7599],1.94,1.142,2.6,1.955,2.646,1.967,3.262,2.592,252.0,558.0
2015-05-18,Bhopal,India,77.4126,23.2599,[76.9126 22.7599 77.9126 23.7599],1.994,1.2,2.718,1.994,2.601,1.872,3.22,2.533,232.0,510.0
2015-05-19,Bhopal,India,77.4126,23.2599,[76.9126 22.7599 77.9126 23.7599],1.994,1.315,2.718,1.999,2.563,1.81,3.225,2.521,245.0,526.0
2015-05-20,Bhopal,India,77.4126,23.2599,[76.9126 22.7599 77.9126 23.7599],2.063,1.463,2.745,2.084,2.594,1.843,3.231,2.53,237.0,519.0
2015-05-21,Bhopal,India,77.4126,23.2599,[76.9126 22.7599 77.9126 23.7599],2.09,1.471,2.747,2.099,2.556,1.827,3.212,2.531,254.0,518.0
2015-05-22,Bhopal,India,77.4126,23.2599,[76.9126 22.7599 77.9126 23.7599],2.097,1.528,2.745,2.109,2.57,1.849,3.214,2.538,280.0,524.0
2015-05-23,Bhopal,India,77.4126,23.2599,[76.9126 22.7599 77.9126 23.7599],2.11,1.532,2.747,2.118,2.588,1.91,3.206,2.561,304.0,508.0
2015-05-24,Bhopal,India,77.4126,23.2599,[76.9126 22.7599 77.9126 23.7599],2.11,1.377,2.888,2.115,2.627,1.906,3.274,2.587,274.0,521.0
2015-05-25,Bhopal,India,77.4126,23.2599,[76.9126 22.7599 77.9126 23.7599],2.019,1.351,2.738,2.05,2.615,1.916,3.247,2.575,302.0,503.0
2015-05-26,Bhopal,India,77.4126,23.2599,[76.9126 22.7599 77.9126 23.7599],1.808,1.266,2.327,1.821,2.581,1.912,3.203,2.574,275.0,520.0
2015-05-27,Bhopal,India,77.4126,23.2599,[76.9126 22.7599 77.9126 23.7599],1.704,1.229,2.268,1.749,2.517,1.853,3.135,2.51,271.0,508.0
2015-05-28,Bhopal,India,77.4126,23.2599,[76.9126 22.7599 77.9126 23.7599],1.658,1.178,2.24,1.726,2.484,1.81,3.119,2.492,295.0,523.0
2015-05-29,Bhopal,India,77.4126,23.2599,[76.9126 22.7599 77.9126 23.7599],1.731,1.266,2.259,1.769,2.448,1.769,3.101,2.447,278.0,517.0
2015-05-30,Bhopal,India,77.4126,23.2599,[76.9126 22.7599 77.9126 23.7599],1.742,1.254,2.286,1.777,2.427,1.737,3.131,2.442,273.0,506.0
2015-05-31,Bhopal,India,77.4126,23.2599,[76.9126 22.7599 77.9126 23.7599],1.812,1.343,2.327,1.877,2.469,1.82,3.15,2.497,255.0,519.0
2015-06-01,Bhopal,India,77.4126,23.2599,[76.9126 22.7599 77.9126 23.7599],1.819,1.295,2.333,1.855,2.403,1.784,3.052,2.443,270.0,494.0
2015-06-02,Bhopal,India,77.4126,23.2599,[76.9126 22.7599 77.9126 23.7599],1.819,1.295,2.333,1.855,2.422,1.781,3.098,2.47,270.0,543.0
2015-06-03,Bhopal,India,77.4126,23.2599,[76.9126 22.7599 77.9126 23.7599],1.871,1.343,2.312,1.876,2.417,1.781,3.088,2.451,254.0,541.0
2015-06-04,Bhopal,India,77.4126,23.2599,[76.9126 22.7599 77.9126 23.7599],1.814,1.305,2.309,1.833,2.366,1.745,3.067,2.432,267.0,558.0
2015-06-05,Bhopal,India,77.4126,23.2599,[76.9126 22.7599 77.9126 23.7599],1.793,1.295,2.272,1.803,2.324,1.784,3.025,2.426,238.0,552.0
2015-06-06,Bhopal,India,77.4126,23.2599,[76.9126 22.7599 77.9126 23.7599],1.745,1.266,2.24,1.789,2.315,1.783,2.978,2.42,218.0,553.0
2015-06-07,Bhopal,India,77.4126,23.2599,[76.9126 22.7599 77.9126 23.7599],1.711,1.266,2.2,1.758,2.312,1.787,2.956,2.414,220.0,559.0
2015-06-08,Bhopal,India,77.4126,23.2599,[76.9126 22.7599 77.9126 23.7599],1.711,1.229,2.2,1.739,2.279,1.772,2.887,2.372,236.0,542.0
2015-06-09,Bhopal,India,77.4126,23.2599,[76.9126 22.7599 77.9126 23.7599],1.74,1.178,2.24,1.737,2.31,1.72,2.931,2.388,208.0,555.0
2015-06-10,Bhopal,India,77.4126,23.2599,[76.9126 22.7599 77.9126 23.7599],1.775,1.244,2.268,1.775,2.274,1.694,2.909,2.341,238.0,538.0
2015-06-11,Bhopal,India,77.4126,23.2599,[76.9126 22.7599 77.9126 23.7599],1.871,1.321,2.302,1.847,2.314,1.746,2.903,2.358,209.0,558.0
2015-06-12,Bhopal,India,77.4126,23.2599,[76.9126 22.7599 77.9126 23.7599],1.9,1.31,2.333,1.865,2.287,1.725,2.873,2.337,184.0,547.0
2015-06-13,Bhopal,India,77.4126,23.2599,[76.9126 22.7599 77.9126 23.7599],1.886,1.321,2.336,1.869,2.261,1.679,2.851,2.319,207.0,562.0
2015-06-14,Bhopal,India,77.4126,23.2599,[76.9126 22.7599 77.9126 23.7599],1.9,1.367,2.341,1.913,2.269,1.696,2.836,2.332,193.0,559.0
2015-06-15,Bhopal,India,77.4126,23.2599,[76.9126 22.7599 77.9126 23.7599],1.9,1.381,2.341,1.92,2.243,1.671,2.797,2.313,198.0,548.0
2015-06-16,Bhopal,India,77.4126,23.2599,[76.9126 22.7599 77.9126 23.7599],1.883,1.476,2.341,1.96,2.24,1.708,2.796,2.322,194.0,563.0
2015-06-17,Bhopal,India,77.4126,23.2599,[76.9126 22.7599 77.9126 23.7599],1.883,1.476,2.341,1.96,2.259,1.746,2.796,2.312,195.0,541.0
2015-06-18,Bhopal,India,77.4126,23.2599,[76.9126 22.7599 77.9126 23.7599],1.913,1.451,2.406,1.995,2.291,1.736,2.864,2.352,174.0,547.0
2015-06-19,Bhopal,India,77.4126,23.2599,[76.9126 22.7599 77.9126 23.7599],1.913,1.453,2.357,1.997,2.23,1.703,2.796,2.306,139.0,500.0
2015-06-20,Bhopal,India,77.4126,23.2599,[76.9126 22.7599 77.9126 23.7599],1.776,1.335,2.341,1.889,2.166,1.617,2.787,2.256,176.0,516.0
2015-06-21,Bhopal,India,77.4126,23.2599,[76.9126 22.7599 77.9126 23.7599],1.9,1.344,2.341,1.902,2.136,1.602,2.727,2.207,194.0,511.0
2015-06-22,Bhopal,India,77.4126,23.2599,[76.9126 22.7599 77.9126 23.7599],1.845,1.253,2.336,1.881,2.076,1.508,2.68,2.161,190.0,513.0
2015-06-23,Bhopal,India,77.4126,23.2599,[76.9126 22.7599 77.9126 23.7599],1.9,1.335,2.341,1.917,2.036,1.411,2.673,2.104,187.0,514.0
2015-06-24,Bhopal,India,77.4126,23.2599,[76.9126 22.7599 77.9126 23.7599],1.73,1.219,2.302,1.84,2.016,1.354,2.659,2.079,209.0,497.0
2015-06-25,Bhopal,India,77.4126,23.2599,[76.9126 22.7599 77.9126 23.7599],1.667,1.03,2.336,1.808,1.948,1.23,2.571,1.998,179.0,509.0
2015-06-26,Bhopal,India,77.4126,23.2599,[76.9126 22.7599 77.9126 23.7599],1.667,1.029,2.118,1.719,1.907,1.184,2.506,1.948,204.0,491.0